N4JEX-1 Weather Reports


Display with metric or nautical units.
time (UTC)temp
F
wind
direction
speed
MPH
gust
MPH
rain 1hr
in
rain 24hr
in
rain mn
in
humidity
%
barometer
mb
20260509104226 52 184 0.0 0.0 0.00 0.00 0.00 90 1013.1
20260509103223 52 184 0.0 0.0 0.00 0.00 0.00 89 1012.8
20260509102219 52 184 0.0 0.0 0.00 0.00 0.00 89 1012.7
20260509101218 52 184 0.0 0.0 0.00 0.00 0.00 88 1012.5
20260509095213 52 184 0.0 0.0 0.00 0.00 0.00 88 1012.2
20260509094229 52 183 0.0 0.0 0.00 0.00 0.00 87 1012.3
20260509093226 53 183 0.0 0.0 0.00 0.00 0.00 87 1012.2
20260509092223 53 183 0.0 0.0 0.00 0.00 0.00 87 1012.5
20260509091239 53 183 0.0 0.0 0.00 0.00 0.00 87 1012.4
20260509090226 54 183 0.0 0.0 0.00 0.00 0.00 86 1012.4
20260509085245 54 183 0.0 0.0 0.00 0.00 0.00 86 1012.4
20260509084240 54 183 0.0 0.0 0.00 0.00 0.00 86 1012.3
20260509083237 54 184 0.0 0.0 0.00 0.00 0.00 86 1012.3
20260509082224 54 183 0.0 0.0 0.00 0.00 0.00 85 1012.2
20260509081216 54 183 0.0 0.0 0.00 0.00 0.00 85 1012.3
20260509080213 55 183 0.0 0.0 0.00 0.00 0.00 84 1012.5
20260509075223 55 184 0.0 0.0 0.00 0.00 0.00 84 1012.7
20260509074219 55 184 0.0 0.0 0.00 0.00 0.00 84 1012.8
20260509073231 55 183 0.0 0.0 0.00 0.00 0.00 84 1012.8
20260509072219 55 183 0.0 0.0 0.00 0.00 0.00 84 1013.1
20260509071235 55 184 0.0 0.0 0.00 0.00 0.00 84 1013.1
20260509070231 55 183 0.0 0.0 0.00 0.00 0.00 84 1013.1
20260509065221 56 184 0.0 0.0 0.00 0.00 0.00 84 1013.2
20260509064238 56 183 0.0 1.0 0.00 0.00 0.00 84 1013.5
20260509063243 56 184 0.0 0.0 0.00 0.00 0.00 83 1013.6
20260509062238 56 184 0.0 1.0 0.00 0.00 0.00 83 1013.5
20260509061225 56 184 0.0 0.0 0.00 0.00 0.00 82 1013.7
20260509060242 57 183 0.0 0.0 0.00 0.00 0.00 82 1013.8
20260509055239 57 183 0.0 0.0 0.00 0.00 0.00 81 1014.0
20260509054231 57 183 0.0 0.0 0.00 0.00 0.00 81 1014.2
20260509053219 58 183 0.0 0.0 0.00 0.00 0.00 80 1014.3
20260509052245 58 183 0.0 0.0 0.00 0.00 0.00 79 1014.5
20260509051240 58 184 0.0 0.0 0.00 0.00 0.00 79 1014.5
20260509050227 59 184 0.0 0.0 0.00 0.00 0.00 78 1014.6
20260509045217 59 184 0.0 0.0 0.00 0.00 0.00 76 1014.6
20260509044214 60 184 0.0 0.0 0.00 0.00 0.00 76 1014.8
20260509043251 60 183 0.0 1.0 0.00 0.00 0.00 76 1015.0
20260509042226 60 178 0.0 1.0 0.00 0.00 0.00 75 1014.9
20260509041223 60 178 0.0 1.0 0.00 0.00 0.00 74 1014.9
20260509040219 60 178 0.0 0.0 0.00 0.00 0.00 75 1014.7
20260509035224 60 178 0.0 1.0 0.00 0.00 0.00 74 1014.8
20260509034240 60 186 0.0 1.0 0.00 0.00 0.00 73 1014.7
20260509033237 60 209 0.0 1.0 0.00 0.00 0.00 73 1014.7
20260509032254 61 270 0.0 1.0 0.00 0.00 0.00 73 1014.7
20260509031220 61 284 0.0 0.0 0.00 0.00 0.00 73 1014.8
20260509030216 61 160 0.0 0.0 0.00 0.00 0.00 73 1014.7
20260509024221 61 160 0.0 0.0 0.00 0.00 0.00 72 1015.0
20260509023218 61 160 0.0 0.0 0.00 0.00 0.00 72 1015.2
20260509022234 61 160 0.0 0.0 0.00 0.00 0.00 72 1015.1
20260509021251 61 160 0.0 0.0 0.00 0.00 0.00 71 1015.1
20260509020226 61 175 0.0 0.0 0.00 0.00 0.00 72 1014.9
20260509015235 61 175 0.0 0.0 0.00 0.00 0.00 72 1015.0
20260509014231 62 175 0.0 0.0 0.00 0.00 0.00 71 1015.0
20260509013227 62 175 0.0 0.0 0.00 0.00 0.00 70 1014.9
20260509012215 62 175 0.0 0.0 0.00 0.00 0.00 69 1014.7
20260509011231 63 175 0.0 0.0 0.00 0.00 0.00 69 1014.6
20260509010228 63 175 0.0 0.0 0.00 0.00 0.00 70 1014.6
20260509005218 63 175 0.0 0.0 0.00 0.00 0.00 68 1014.5
20260509004215 64 175 0.0 0.0 0.00 0.00 0.00 66 1014.4
20260509003251 64 175 0.0 0.0 0.00 0.00 0.00 64 1014.4
20260509002226 65 175 0.0 0.0 0.00 0.00 0.00 62 1014.4
20260509001223 65 175 0.0 0.0 0.00 0.00 0.00 62 1014.3
20260509000241 66 175 0.0 0.0 0.00 0.00 0.00 60 1014.2
20260508235229 66 175 0.0 0.0 0.00 0.00 0.00 60 1014.1
20260508234216 67 175 0.0 0.0 0.00 0.00 0.00 59 1014.0
20260508233213 67 175 0.0 0.0 0.00 0.00 0.00 57 1014.2
20260508232229 67 176 0.0 0.0 0.00 0.00 0.00 56 1013.8
20260508231241 67 176 0.0 0.0 0.00 0.00 0.00 57 1014.1
20260508230214 67 176 0.0 0.0 0.00 0.01 0.00 53 1014.1
20260508225222 68 176 0.0 1.0 0.00 0.01 0.00 54 1014.0
20260508224218 68 176 0.0 1.0 0.00 0.01 0.00 48 1014.1
20260508223235 68 298 0.0 1.0 0.00 0.01 0.00 50 1014.2
20260508222222 69 345 0.0 2.0 0.00 0.01 0.00 46 1014.1
20260508221218 69 271 0.0 2.0 0.00 0.01 0.00 46 1014.2
20260508220216 69 349 2.0 2.0 0.00 0.03 0.00 44 1013.9
20260508215254 69 62 0.0 2.0 0.00 0.03 0.00 43 1013.8
20260508214221 69 355 0.0 0.0 0.00 0.03 0.00 43 1014.0
20260508213217 69 331 0.0 2.0 0.00 0.03 0.00 44 1014.0
20260508212213 69 38 0.0 3.0 0.00 0.03 0.00 45 1014.0
20260508211230 70 343 1.0 3.0 0.00 0.03 0.00 44 1014.3
20260508210218 71 222 0.0 3.0 0.00 0.03 0.00 40 1014.4
20260508205237 70 277 2.0 5.0 0.00 0.03 0.00 40 1014.4
20260508204233 71 320 1.0 3.0 0.00 0.03 0.00 43 1014.2
20260508203229 70 113 1.0 5.0 0.00 0.03 0.00 41 1014.3
20260508202214 70 346 2.0 4.0 0.00 0.03 0.00 40 1014.6
20260508201230 72 355 1.0 3.0 0.00 0.03 0.00 41 1014.7
20260508200226 70 147 0.0 4.0 0.00 0.03 0.00 41 1014.7
20260508195216 70 42 2.0 4.0 0.00 0.03 0.00 40 1015.2
20260508194252 70 324 1.0 3.0 0.00 0.03 0.00 40 1015.2
20260508193228 70 302 0.0 3.0 0.00 0.03 0.00 38 1015.4
20260508192244 71 96 1.0 3.0 0.00 0.03 0.00 37 1015.6
20260508191218 70 95 1.0 3.0 0.00 0.03 0.00 34 1015.5
20260508190215 69 351 3.0 4.0 0.00 0.03 0.00 36 1015.6
20260508185240 69 108 1.0 6.0 0.00 0.03 0.00 38 1016.0
20260508184256 71 329 2.0 4.0 0.00 0.03 0.00 37 1016.2
20260508183223 69 273 1.0 4.0 0.00 0.03 0.00 34 1016.0
20260508182219 69 336 1.0 3.0 0.00 0.03 0.00 37 1016.1
20260508181215 69 88 1.0 3.0 0.00 0.03 0.00 36 1016.3
20260508180232 70 148 1.0 6.0 0.00 0.03 0.00 37 1016.4
20260508175222 69 73 1.0 3.0 0.00 0.03 0.00 40 1016.5
20260508174238 68 309 0.0 3.0 0.00 0.03 0.00 38 1016.6
20260508173213 69 360 1.0 5.0 0.00 0.03 0.00 40 1016.8
20260508172229 68 343 1.0 4.0 0.00 0.03 0.00 40 1016.8
20260508171216 69 325 2.0 4.0 0.00 0.03 0.00 38 1017.0
20260508170232 69 100 1.0 3.0 0.00 0.03 0.00 39 1017.3
20260508165222 67 355 1.0 5.0 0.00 0.03 0.00 44 1017.4
20260508164238 67 177 0.0 3.0 0.00 0.03 0.00 45 1017.4
20260508163213 67 53 1.0 5.0 0.00 0.03 0.00 40 1017.6
20260508162229 67 78 1.0 2.0 0.00 0.03 0.00 47 1017.7
20260508161225 66 98 1.0 8.0 0.00 0.03 0.00 45 1017.9
20260508160222 67 80 0.0 7.0 0.00 0.04 0.00 44 1018.0
20260508155232 66 94 3.0 7.0 0.00 0.04 0.00 44 1018.2
20260508154228 65 76 1.0 6.0 0.00 0.04 0.00 47 1018.2
20260508153216 65 97 2.0 5.0 0.00 0.04 0.00 47 1018.2
20260508152232 64 138 2.0 5.0 0.00 0.04 0.00 48 1018.2
20260508151228 63 9 2.0 5.0 0.00 0.04 0.00 47 1018.2
20260508150224 63 103 1.0 5.0 0.00 0.04 0.00 58 1018.4
20260508145213 62 107 1.0 6.0 0.00 0.06 0.00 59 1018.5
20260508144229 61 86 2.0 5.0 0.00 0.06 0.00 55 1018.5
20260508143217 61 90 1.0 5.0 0.00 0.06 0.00 61 1018.4
20260508142213 59 125 2.0 3.0 0.00 0.06 0.00 60 1018.5
20260508141229 59 264 1.0 5.0 0.00 0.06 0.00 60 1018.4
20260508140226 59 27 1.0 4.0 0.00 0.06 0.00 65 1018.3
20260508135217 58 86 1.0 6.0 0.00 0.08 0.00 67 1018.4
20260508134213 57 119 2.0 5.0 0.00 0.08 0.00 72 1018.4
20260508133225 57 171 0.0 5.0 0.00 0.08 0.00 73 1018.4
20260508132242 56 105 2.0 5.0 0.00 0.08 0.00 75 1018.3
20260508131237 55 105 1.0 6.0 0.00 0.08 0.00 77 1018.2
20260508130225 54 111 1.0 5.0 0.00 0.08 0.00 80 1018.1
20260508125239 53 101 1.0 3.0 0.00 0.17 0.00 83 1017.9
20260508124235 53 89 1.0 6.0 0.00 0.17 0.00 84 1017.8
20260508123251 52 105 1.0 5.0 0.00 0.17 0.00 85 1017.8
20260508122227 51 119 2.0 6.0 0.00 0.17 0.00 87 1017.7
20260508121244 51 90 3.0 7.0 0.00 0.17 0.00 89 1017.6
20260508120239 50 78 1.0 3.0 0.00 0.17 0.00 90 1017.6
20260508115227 50 109 1.0 6.0 0.00 0.21 0.00 91 1017.3
20260508114214 49 80 2.0 4.0 0.00 0.21 0.00 92 1017.1
20260508113301 49 93 2.0 3.0 0.00 0.21 0.00 92 1017.0
20260508112239 49 88 0.0 2.0 0.00 0.21 0.00 92 1016.9
20260508111254 49 91 0.0 2.0 0.00 0.21 0.00 92 1016.8
20260508110249 48 108 1.0 2.0 0.00 0.21 0.00 92 1016.7